New Ulm, MN

8:17 PM CST on December 15, 2019 (GMT -0600)
New Ulm Municipal

Weather History for KULM - October, 2019

Change the Weather History Date:

Friday, October 11, 2019

  Actual Average Record
Temperature  
Mean Temperature 36 °F -  
Max Temperature 39 °F 64 °F 85 °F (1962)
Min Temperature 32 °F 41 °F 22 °F (1987)
Degree Days  
Heating Degree Days 30    
Moisture  
Dew Point 28 °F    
Average Humidity 76    
Maximum Humidity 93    
Minimum Humidity 60    
Precipitation  
Precipitation 0.00 in - - ()
Sea Level Pressure  
Sea Level Pressure 29.82 in    
Wind  
Wind Speed 16 mph ()    
Max Wind Speed 30 mph    
Max Gust Speed 37 mph    
Visibility 9.4 miles    
Events Snow , Thunderstorm    
Averages and records for this station are not official NWS values.
T = Trace of Precipitation, MM = Missing Value Source: Averaged Metar Reports

Daily Weather History Graph

Daily Weather History Graph

Search for Another Location

Airport or City:

Astronomy

Oct. 11, 2019 Rise Set
Actual Time 7:27 AM CDT 6:41 PM CDT
Civil Twilight 6:58 AM CDT 7:10 PM CDT
Nautical Twilight 6:25 AM CDT 7:43 PM CDT
Astronomical Twilight 5:51 AM CDT 8:17 PM CDT
Moon 6:17 PM CDT (10/11) 5:00 AM CDT (10/11)
Length of Visible Light 12h 11m
Length of Day
11h 13m
Waxing Gibbous, 96% of the Moon is Illuminated
Oct 11
Waxing Gibbous
Oct 13
Full
Oct 21
Last Quarter
Oct 27
New
Nov 4
First Quarter

Hourly Weather History & Observations

Time (CDT) Temp. Windchill Dew Point Humidity Pressure Visibility Wind Dir Wind Speed Gust Speed Precip Events Conditions
12:15 AM 35.6 °F 26.2 °F 33.8 °F 93% 29.80 in 10.0 mi West 15.0 mph - N/A Thunderstorm Thunderstorm
12:35 AM 35.6 °F 26.2 °F 33.8 °F 93% 29.78 in 10.0 mi West 15.0 mph 25.3 mph N/A   Overcast
12:55 AM 35.6 °F 27.1 °F 33.8 °F 93% 29.79 in 10.0 mi West 12.7 mph 20.7 mph N/A   Overcast
12:56 AM 35.6 °F 27.1 °F 33.8 °F 93% 29.79 in 10.0 mi West 12.7 mph - N/A   Overcast
1:15 AM 35.6 °F 25.9 °F 33.8 °F 93% 29.79 in 10.0 mi West 16.1 mph 23.0 mph N/A   Overcast
1:35 AM 35.6 °F 27.1 °F 33.8 °F 93% 29.79 in 10.0 mi West 12.7 mph - N/A   Overcast
1:55 AM 35.6 °F 26.6 °F 32.0 °F 87% 29.80 in 10.0 mi West 13.8 mph 21.9 mph N/A   Overcast
2:15 AM 35.6 °F 26.6 °F 33.8 °F 93% 29.80 in 10.0 mi West 13.8 mph - N/A Thunderstorm Overcast
2:35 AM 35.6 °F 26.2 °F 32.0 °F 87% 29.80 in 10.0 mi West 15.0 mph 25.3 mph N/A   Overcast
2:55 AM 35.6 °F 26.2 °F 32.0 °F 87% 29.80 in 5.0 mi West 15.0 mph 18.4 mph N/A   Overcast
3:15 AM 33.8 °F 24.3 °F 32.0 °F 93% 29.79 in 10.0 mi West 13.8 mph 19.6 mph N/A   Overcast
3:16 AM 33.8 °F 23.9 °F 32.0 °F 93% 29.79 in 10.0 mi West 15.0 mph 19.6 mph N/A   Overcast
3:35 AM 33.8 °F 23.9 °F 32.0 °F 93% 29.77 in 10.0 mi West 15.0 mph 18.4 mph N/A   Overcast
3:55 AM 33.8 °F 23.9 °F 30.2 °F 87% 29.81 in 10.0 mi West 15.0 mph 23.0 mph N/A   Overcast
4:15 AM 35.6 °F 26.6 °F 30.2 °F 81% 29.81 in 10.0 mi West 13.8 mph 20.7 mph N/A   Overcast
4:16 AM 35.6 °F 27.1 °F 30.2 °F 81% 29.81 in 10.0 mi West 12.7 mph 20.7 mph N/A   Overcast
4:35 AM 33.8 °F 25.3 °F 30.2 °F 87% 29.80 in 10.0 mi West 11.5 mph 19.6 mph N/A   Mostly Cloudy
4:55 AM 33.8 °F 25.3 °F 30.2 °F 87% 29.81 in 10.0 mi West 11.5 mph 17.3 mph N/A   Overcast
4:56 AM 33.8 °F 24.3 °F 30.2 °F 87% 29.81 in 10.0 mi West 13.8 mph 17.3 mph N/A   Overcast
5:15 AM 33.8 °F 24.3 °F 30.2 °F 87% 29.81 in 10.0 mi West 13.8 mph - N/A   Overcast
5:16 AM 33.8 °F 24.8 °F 30.2 °F 87% 29.81 in 7.0 mi West 12.7 mph - N/A   Overcast
5:35 AM 33.8 °F 25.3 °F 30.2 °F 87% 29.82 in 10.0 mi West 11.5 mph - N/A   Overcast
5:55 AM 33.8 °F 23.2 °F 30.2 °F 87% 29.82 in 10.0 mi West 17.3 mph 23.0 mph N/A   Overcast
6:15 AM 33.8 °F 24.3 °F 28.4 °F 81% 29.83 in 10.0 mi West 13.8 mph 19.6 mph N/A   Mostly Cloudy
6:16 AM 33.8 °F 24.3 °F 28.4 °F 81% 29.83 in 10.0 mi West 13.8 mph 19.6 mph N/A   Mostly Cloudy
6:35 AM 33.8 °F 24.8 °F 28.4 °F 81% 29.82 in 10.0 mi WSW 12.7 mph - N/A   Mostly Cloudy
6:55 AM 33.8 °F 23.5 °F 28.4 °F 81% 29.83 in 10.0 mi West 16.1 mph 20.7 mph N/A   Overcast
6:56 AM 33.8 °F 23.5 °F 28.4 °F 81% 29.83 in 10.0 mi West 16.1 mph 20.7 mph N/A   Overcast
7:15 AM 33.8 °F 23.2 °F 28.4 °F 81% 29.83 in 10.0 mi WSW 17.3 mph - N/A   Overcast
7:35 AM 33.8 °F 23.5 °F 28.4 °F 81% 29.82 in 10.0 mi WSW 16.1 mph 25.3 mph N/A   Overcast
7:36 AM 33.8 °F 23.5 °F 28.4 °F 81% 29.82 in 10.0 mi WSW 16.1 mph 25.3 mph N/A   Overcast
7:55 AM 33.8 °F 24.3 °F 28.4 °F 81% 29.83 in 10.0 mi WSW 13.8 mph 23.0 mph N/A   Overcast
8:15 AM 33.8 °F 23.9 °F 28.4 °F 81% 29.83 in 10.0 mi WSW 15.0 mph 23.0 mph N/A   Overcast
8:16 AM 33.8 °F 23.9 °F 28.4 °F 81% 29.83 in 10.0 mi WSW 15.0 mph 23.0 mph N/A   Overcast
8:35 AM 33.8 °F 23.2 °F 28.4 °F 81% 29.83 in 10.0 mi WSW 17.3 mph 25.3 mph N/A   Overcast
8:55 AM 33.8 °F 23.5 °F 28.4 °F 81% 29.84 in 10.0 mi WSW 16.1 mph 27.6 mph N/A   Overcast
9:15 AM 35.6 °F 24.2 °F 26.6 °F 70% 29.83 in 10.0 mi WSW 21.9 mph 29.9 mph N/A   Overcast
9:35 AM 35.6 °F 24.5 °F 26.6 °F 70% 29.83 in 10.0 mi WSW 20.7 mph 26.5 mph N/A   Overcast
9:36 AM 35.6 °F 24.5 °F 26.6 °F 70% 29.83 in 10.0 mi WSW 20.7 mph 26.5 mph N/A   Overcast
9:55 AM 35.6 °F 23.0 °F 26.6 °F 70% 29.83 in 10.0 mi West 27.6 mph 34.5 mph N/A   Mostly Cloudy
10:15 AM 35.6 °F 23.7 °F 24.8 °F 65% 29.83 in 10.0 mi WSW 24.2 mph 34.5 mph N/A   Mostly Cloudy
10:35 AM 35.6 °F 24.2 °F 26.6 °F 70% 29.83 in 10.0 mi WSW 21.9 mph 29.9 mph N/A   Overcast
10:36 AM 35.6 °F 24.0 °F 26.6 °F 70% 29.83 in 10.0 mi WSW 23.0 mph 29.9 mph N/A   Overcast
10:55 AM 35.6 °F 25.2 °F 26.6 °F 70% 29.83 in 10.0 mi WSW 18.4 mph 29.9 mph N/A   Overcast
11:15 AM 35.6 °F 25.5 °F 26.6 °F 70% 29.83 in 10.0 mi WSW 17.3 mph 26.5 mph N/A   Overcast
11:16 AM 35.6 °F 24.8 °F 26.6 °F 70% 29.83 in 10.0 mi WSW 19.6 mph 26.5 mph N/A   Overcast
11:35 AM 35.6 °F 24.5 °F 26.6 °F 70% 29.83 in 10.0 mi WSW 20.7 mph 29.9 mph N/A   Overcast
11:55 AM 37.4 °F 26.4 °F 24.8 °F 60% 29.82 in 10.0 mi WSW 23.0 mph 28.8 mph N/A   Overcast
12:15 PM 37.4 °F 26.4 °F 26.6 °F 65% 29.82 in 10.0 mi WSW 23.0 mph 28.8 mph N/A   Overcast
12:16 PM 37.4 °F 26.9 °F 26.6 °F 65% 29.82 in 10.0 mi WSW 20.7 mph 28.8 mph N/A   Overcast
12:35 PM 37.4 °F 26.9 °F 24.8 °F 60% 29.82 in 10.0 mi WSW 20.7 mph 26.5 mph N/A   Overcast
12:55 PM 37.4 °F 26.6 °F 26.6 °F 65% 29.82 in 10.0 mi WSW 21.9 mph 29.9 mph N/A   Overcast
1:15 PM 37.4 °F 26.9 °F 26.6 °F 65% 29.82 in 10.0 mi West 20.7 mph 31.1 mph N/A   Overcast
1:16 PM 37.4 °F 26.1 °F 26.6 °F 65% 29.82 in 10.0 mi West 24.2 mph 31.1 mph N/A   Overcast
1:35 PM 39.2 °F 28.5 °F 26.6 °F 61% 29.81 in 10.0 mi WSW 24.2 mph 29.9 mph N/A   Overcast
1:55 PM 37.4 °F 25.6 °F 24.8 °F 60% 29.80 in 10.0 mi West 26.5 mph 33.4 mph N/A   Overcast
1:56 PM 37.4 °F 26.1 °F 24.8 °F 60% 29.81 in 10.0 mi West 24.2 mph 33.4 mph N/A   Overcast
2:15 PM 37.4 °F 26.4 °F 26.6 °F 65% 29.80 in 10.0 mi WSW 23.0 mph 33.4 mph N/A   Overcast
2:16 PM 37.4 °F 26.6 °F 26.6 °F 65% 29.80 in 10.0 mi WSW 21.9 mph 33.4 mph N/A   Overcast
2:35 PM 39.2 °F 28.0 °F 26.6 °F 61% 29.80 in 10.0 mi West 26.5 mph 32.2 mph N/A   Overcast
2:36 PM 39.2 °F 28.3 °F 26.6 °F 61% 29.80 in 10.0 mi West 25.3 mph 32.2 mph N/A   Overcast
2:55 PM 37.4 °F 25.6 °F 24.8 °F 60% 29.80 in 10.0 mi WSW 26.5 mph 32.2 mph N/A   Overcast
2:56 PM 37.4 °F 25.6 °F 24.8 °F 60% 29.80 in 10.0 mi WSW 26.5 mph 32.2 mph N/A   Overcast
3:15 PM 37.4 °F 27.2 °F 26.6 °F 65% 29.81 in 10.0 mi West 19.6 mph 29.9 mph N/A   Overcast
3:35 PM 37.4 °F 25.0 °F 26.6 °F 65% 29.81 in 10.0 mi West 29.9 mph 36.8 mph N/A   Overcast
3:36 PM 37.4 °F 25.9 °F 26.6 °F 65% 29.81 in 10.0 mi West 25.3 mph 36.8 mph N/A   Overcast
3:55 PM 35.6 °F 24.2 °F 26.6 °F 70% 29.81 in 10.0 mi West 21.9 mph 33.4 mph N/A   Overcast
4:15 PM 35.6 °F 23.2 °F 30.2 °F 81% 29.81 in 4.0 mi West 26.5 mph 32.2 mph N/A Snow Light Snow
4:16 PM 35.6 °F 23.0 °F 28.4 °F 75% 29.81 in 5.0 mi West 27.6 mph 33.4 mph N/A Snow Light Snow
4:35 PM 35.6 °F 24.8 °F 28.4 °F 75% 29.82 in 7.0 mi West 19.6 mph 31.1 mph N/A   Overcast
4:55 PM 35.6 °F 24.2 °F 26.6 °F 70% 29.82 in 10.0 mi WSW 21.9 mph 33.4 mph N/A   Overcast
5:15 PM 35.6 °F 23.7 °F 24.8 °F 65% 29.82 in 10.0 mi West 24.2 mph 31.1 mph N/A   Overcast
5:16 PM 35.6 °F 23.4 °F 24.8 °F 65% 29.82 in 10.0 mi West 25.3 mph 31.1 mph N/A   Overcast
5:35 PM 35.6 °F 24.0 °F 26.6 °F 70% 29.83 in 7.0 mi West 23.0 mph 35.7 mph N/A Snow Light Snow
5:55 PM 35.6 °F 22.5 °F 26.6 °F 70% 29.83 in 10.0 mi West 29.9 mph 36.8 mph N/A   Overcast
6:15 PM 33.8 °F 22.2 °F 26.6 °F 75% 29.84 in 10.0 mi West 20.7 mph 29.9 mph N/A Snow Light Snow
6:35 PM 33.8 °F 22.5 °F 26.6 °F 75% 29.83 in 7.0 mi WSW 19.6 mph 25.3 mph N/A Snow Light Snow
6:55 PM 33.8 °F 21.3 °F 26.6 °F 75% 29.84 in 7.0 mi West 24.2 mph 35.7 mph N/A Snow Light Snow
7:15 PM 33.8 °F 22.8 °F 26.6 °F 75% 29.84 in 10.0 mi West 18.4 mph 31.1 mph N/A Snow Light Snow
7:16 PM 33.8 °F 23.2 °F 26.6 °F 75% 29.84 in 10.0 mi West 17.3 mph 31.1 mph N/A Snow Light Snow
7:35 PM 33.8 °F 23.5 °F 26.6 °F 75% 29.84 in 7.0 mi WSW 16.1 mph 28.8 mph N/A   Overcast
7:55 PM 32.0 °F 19.8 °F 26.6 °F 80% 29.84 in 7.0 mi WSW 20.7 mph 27.6 mph N/A Snow Light Snow
8:15 PM 32.0 °F 20.8 °F 28.4 °F 87% 29.84 in 7.0 mi WSW 17.3 mph 26.5 mph N/A   Overcast
8:16 PM 32.0 °F 20.1 °F 28.4 °F 87% 29.84 in 7.0 mi WSW 19.6 mph 26.5 mph N/A   Overcast
8:35 PM 32.0 °F 19.8 °F 26.6 °F 80% 29.83 in 7.0 mi WSW 20.7 mph 27.6 mph N/A Snow Light Snow
8:55 PM 32.0 °F 20.8 °F 28.4 °F 87% 29.83 in 5.0 mi WSW 17.3 mph 29.9 mph N/A Snow Light Snow
9:15 PM 32.0 °F 21.6 °F 28.4 °F 87% 29.83 in 5.0 mi WSW 15.0 mph 24.2 mph N/A Snow Light Snow
9:35 PM 33.8 °F 21.9 °F 26.6 °F 75% 29.82 in 10.0 mi WSW 21.9 mph 29.9 mph N/A   Overcast
9:36 PM 33.8 °F 22.5 °F 26.6 °F 75% 29.83 in 10.0 mi WSW 19.6 mph 29.9 mph N/A   Overcast
10:15 PM 35.6 °F 24.5 °F 26.6 °F 70% 29.81 in 10.0 mi WSW 20.7 mph 29.9 mph N/A   Overcast
10:35 PM 35.6 °F 25.5 °F 24.8 °F 65% 29.81 in 10.0 mi WSW 17.3 mph 24.2 mph N/A   Overcast
10:55 PM 35.6 °F 24.5 °F 24.8 °F 65% 29.80 in 10.0 mi WSW 20.7 mph 27.6 mph N/A   Overcast
11:15 PM 35.6 °F 24.5 °F 24.8 °F 65% 29.80 in 10.0 mi WSW 20.7 mph 28.8 mph N/A   Overcast
11:35 PM 33.8 °F 22.5 °F 24.8 °F 70% 29.79 in 10.0 mi WSW 19.6 mph 29.9 mph N/A   Mostly Cloudy
11:36 PM 33.8 °F 22.5 °F 24.8 °F 70% 29.79 in 10.0 mi WSW 19.6 mph 29.9 mph N/A   Mostly Cloudy
11:55 PM 33.8 °F 23.2 °F 24.8 °F 70% 29.79 in 10.0 mi WSW 17.3 mph 28.8 mph N/A   Mostly Cloudy